User: anonymous   Login
Location: Newark
(40.7066°N, 111.8219°W)
Time: 01:12:18
(UTC+00:00)
Language:

Vanguard 3 - Orbit

View from above orbital plane
View from above orbital plane
View from above satellite
View from above satellite

Ground track
Ground track

The orbit data is extracted from the following two-line orbital elements,

1    20U 59007A   19321.78188704  .00000021  00000-0 -54491-5 0  9994
2    20  33.3494 219.6764 1667161 218.6338 128.2569 11.55691290206026
Epoch (UTC): 17 November 2019 18:45:55
Eccentricity: 0.1667161
inclination: 33.3494°
perigee height: 508 km
apogee height: 3263 km
right ascension of ascending node: 219.6764°
argument of perigee: 218.6338°
revolutions per day: 11.55691290
mean anomaly at epoch: 128.2569°
orbit number at epoch: 20602

The dashed part of the orbit path shows where the satellite is in the earth's shadow,  

DLR